Location: Sungai Kamana Besar
(2.6333°N, 113.4333°E)
Time: 06:32:54
(UTC+00:00)

Daily predictions for brighter satellites

Satellite Brightness Start Highest point End
(mag) Time Altitude Azimuth Time Altitude Azimuth Time Altitude Azimuth
Cosmos 44 4.2 12:03:52 10° N 12:06:42 29° NE 12:06:42 29° NE
NOSS 2-1 (C) 4.4 12:02:50 10° SW 12:08:11 53° WNW 12:12:04 10° N
Ariane H10-3 2.8 12:05:22 10° W 12:07:57 41° W 12:07:57 41° W
Meteor 1-5 Rocket 3.9 12:04:55 10° N 12:10:10 74° E 12:11:19 54° SSE
Cosmos 2278 3.7 12:07:53 10° SSW 12:13:31 78° WNW 12:19:09 10° N
OBJECT-B 3.5 12:16:56 12° N 12:16:56 12° N 12:17:15 10° N
Cosmos 1814 Rocket 3.9 12:13:24 10° N 12:18:14 67° ENE 12:18:14 67° ENE
Cosmos 841 Rocket 4.2 12:14:26 10° NNW 12:19:25 49° WSW 12:21:46 29° SSW
SJ 16-02 1.4 12:19:43 71° W 12:19:45 71° WNW 12:24:05 10° N
Cosmos 1340 4.1 12:22:37 32° NNW 12:22:37 32° NNW 12:24:46 10° N
BREEZE-M DEB (TANK) 3.6 12:18:30 10° SW 12:22:18 80° NW 12:37:11 10° NE
ARIANE 3 DEB 4.2 12:13:13 10° W 12:25:42 76° N 12:27:09 57° ENE
Meteor 1-27 Rocket 4.0 12:20:36 11° SSW 12:26:05 65° W 12:31:46 10° N
CSL-04 Rocket 4.0 12:28:24 51° NNE 12:28:24 51° NNE 12:32:32 10° N
Tsikada Rocket 4.3 12:24:37 10° NNW 12:30:42 64° W 12:33:25 34° SSW
GPS 2-17 Rocket1 4.3 12:34:31 10° WNW 12:37:48 40° W 12:37:48 40° W
ARIANE 44L R/B 3.9 12:11:54 10° W 12:41:54 70° N 12:42:49 61° NE
Milstar 3 Cent rocket 4.4 12:31:20 10° NW 12:47:40 40° NNE 12:51:06 33° NE
Sea Lan Dem Rocket 3.4 12:45:16 10° W 12:47:35 43° WSW 12:47:35 43° WSW
Cosmos 2227 Rocket 3.9 12:55:01 10° N 12:57:08 23° N 12:57:08 23° N
Centaur D-1AR AC-48 4.4 13:23:36 10° W 13:26:40 20° NW 13:26:40 20° NW
Cosmos 2297 Rocket 4.4 13:31:48 10° NW 13:33:50 20° WNW 13:33:50 20° WNW
CENTAUR R/B 4.4 13:37:55 10° NW 13:45:35 33° WSW 13:45:35 33° WSW
ARIANE 5 R/B 4.1 18:56:26 54° ENE 18:56:26 54° ENE 19:22:32 10° E
ARIANE 5 R/B 4.1 18:56:26 53° ENE 18:56:26 53° ENE 19:22:33 10° E
ARIANE 5 R/B 4.1 18:56:26 54° ENE 18:56:26 54° ENE 19:22:33 10° E
Atlas Centaur 2 4.3 19:06:33 28° E 19:06:33 28° E 19:10:12 10° ENE
ARIANE DEB (SYLDA) 4.1 19:51:06 65° SSW 19:52:12 70° SSE 21:15:42 10° E
ARIANE 5 DEB (SYLDA) 4.3 19:56:30 59° NNE 19:56:30 59° NNE 20:08:17 10° E
Ariane H10 4.2 20:02:04 46° SSE 20:02:04 46° SSE 20:17:15 10° E
Skynet4D Del rocket 4.2 20:02:05 70° SE 20:02:05 70° SE 20:08:30 10° ENE
Cosmos 2082 Rocket 4.3 20:02:21 14° SSE 20:05:37 22° ESE 20:09:55 10° NE
PAYLOAD A 4.3 20:07:57 65° WNW 20:08:57 82° N 20:32:35 10° E
ARIANE 5 R/B 4.2 20:12:15 10° N 20:14:00 21° NNW 20:14:00 21° NNW
ARIANE 5 R/B 2.5 20:17:59 85° NNW 20:18:02 85° N 20:33:17 10° E
ATLAS 5 CENTAUR R/B 4.2 20:16:39 25° S 20:19:38 27° SSE 20:42:29 10° ESE
ARIANE 5 DEB (SYLDA) 4.2 20:23:47 26° SSE 20:23:47 26° SSE 20:28:28 10° ESE
Hubble Space Telescope 2.1 20:24:33 34° NNE 20:24:33 34° NNE 20:27:22 10° NE
YAOGAN 6 3.8 20:21:29 10° NNE 20:24:29 41° ENE 20:24:29 41° ENE
GPS 2-15 Rocket1 4.3 20:24:41 32° NNW 20:25:50 37° NNE 20:30:12 10° E
Cosmos 2058 3.3 20:26:49 57° NE 20:26:49 57° NE 20:30:12 10° N
CZ-4B R/B 4.0 20:21:17 10° NNE 20:26:28 59° ESE 20:28:49 31° SSE
Stardust Del rocket 3.8 20:27:10 74° SSE 20:27:10 74° SSE 20:33:59 10° ESE
Cosmos 1302 Rocket 3.9 20:28:53 69° SSW 20:29:32 88° W 20:34:48 10° NNE
Sylda 5 2.5 20:33:17 55° S 20:33:17 55° S 20:40:42 10° ESE
Cosmos 192 4.2 20:37:47 66° WSW 20:38:09 69° WNW 20:43:02 10° N
SL-08 R/B 4.4 20:32:25 10° N 20:38:41 73° W 20:45:04 10° S
Cosmos 1190 Rocket 4.0 20:34:04 10° NNW 20:39:16 59° WSW 20:39:55 55° SW
Cosmos 1339 Rocket 4.4 20:36:35 36° SSW 20:39:19 71° W 20:45:41 10° N
Cosmos 1484 Rocket 4.3 20:35:59 10° N 20:37:56 25° NNW 20:37:56 25° NNW
deb Olympus 3.7 20:40:10 43° S 20:40:32 44° SSE 20:48:56 10° E
Ariane H10 2.7 20:44:46 56° WSW 20:45:35 78° S 20:58:11 10° E
ARIANE 5 R/B 3.3 20:42:51 35° WSW 20:45:56 63° S 20:49:05 10° ESE
Landsat 4 3.5 20:43:53 10° N 20:47:21 70° NW 20:47:21 70° NW
Centaur AC-42 3.5 20:16:07 10° WNW 20:47:47 68° SSW 20:53:05 10° SE
Meteor 1-27 4.1 20:42:25 10° NNW 20:47:57 62° W 20:52:43 14° S
COSMOS 2406 3.1 20:46:55 36° SSW 20:49:20 72° WNW 20:55:03 10° N
H-2A R/B 2.8 20:46:07 10° NNE 20:49:41 68° E 20:51:00 36° S
Atlas Centaur 2 3.5 20:49:05 28° W 20:52:24 44° NNW 21:00:09 10° NE
Cosmos 1825 Rocket 4.4 20:53:50 33° WNW 20:53:50 33° WNW 20:57:10 10° NNW
Cosmos 1833 Rocket 3.4 20:53:20 31° W 20:53:41 32° WNW 20:58:36 10° NNW
ARIANE 5 R/B 3.3 20:44:26 24° W 20:53:41 86° S 20:57:27 10° E
DELTA 2 DEB (DPAF) 4.0 20:52:18 21° S 20:55:07 61° WSW 20:59:28 10° NNW
Cosmos 676 Rocket 3.9 20:53:26 10° NNW 20:58:42 70° WSW 21:03:58 10° S
CZ-2C R/B 4.1 20:56:02 10° SE 21:00:45 36° ENE 21:05:28 10° NNE
Cosmos 1340 Rocket 2.8 21:00:57 15° S 21:04:14 80° E 21:08:11 10° N
Cosmos 1821 Rocket 4.4 20:59:38 10° NNW 21:05:31 41° W 21:11:23 10° SSW
BREEZE-M TANK 3.9 21:02:49 13° SSW 21:08:47 41° SE 21:12:09 10° ENE
Tiangong 3.6 21:13:21 10° S 21:15:26 16° SE 21:17:31 10° E
Palapa B4 Rocket 4.1 21:15:07 18° SSW 21:16:58 26° SSE 21:20:11 10° E
Cosmos 2084 4.1 21:17:50 24° WSW 21:19:16 31° WNW 21:22:45 10° N
CZ-3B Rocket 3.6 21:04:46 10° WNW 21:21:29 55° N 21:25:50 10° E
Cosmos 2151 4.0 21:18:25 10° SSE 21:22:27 47° E 21:26:27 10° NNE
Meteor 2-3 Rocket 3.9 21:16:42 10° S 21:22:30 78° E 21:28:16 10° N
CZ-4C R/B 3.1 21:21:05 10° S 21:24:28 51° W 21:27:56 10° NNW
Cosmos 1606 2.5 21:21:29 10° N 21:25:13 77° W 21:29:01 10° S
Meteor 1-31 Rocket 2.8 21:27:29 10° NNE 21:31:16 79° ESE 21:35:04 10° S
Cosmos 1727 Rocket 4.0 21:25:29 10° SSW 21:31:37 61° W 21:37:48 10° N
Envisat 4.3 21:32:12 10° NNW 21:35:57 21° WNW 21:39:33 11° SW
Delta 168 4.3 21:37:04 10° WNW 21:39:29 18° NNW 21:41:43 10° NNE
Cosmos 1934 Rocket 4.3 21:34:38 10° NNW 21:40:17 43° W 21:45:57 10° SSW
ARIANE 5 R/B 4.1 21:25:49 10° W 21:43:58 88° N 21:48:23 10° E
SL-08 R/B 4.2 21:40:38 10° SSW 21:44:25 25° WSW 21:48:10 10° NW
Centaur Rocket 4.3 21:30:05 10° WNW 21:44:34 80° SSW 21:48:56 10° ESE
Cosmos-2242 4.4 21:44:05 10° NW 21:47:08 19° W 21:50:11 10° SW
Cosmos 2082 Rocket 3.3 21:44:48 10° SW 21:49:24 25° WNW 21:54:01 10° NNW
Ariane H10 2.9 21:46:25 10° WSW 21:49:43 28° SSW 21:51:55 10° SE
CZ-2C R/B 3.8 21:44:54 10° NNW 21:49:49 34° WNW 21:54:33 10° SW
ARIANE 5 DEB (SYLDA) 3.3 21:45:32 10° W 21:50:11 61° S 21:59:48 10° E
FALCON 9 DEB 4.2 21:48:25 10° WSW 21:51:15 27° NW 21:54:05 10° N
Ariane H10-3 2.3 21:50:49 10° WSW 21:53:21 63° S 22:02:06 10° E
ARIANE 44L R/B 4.3 13:37:59 10° W 22:30:53 83° N 22:35:01 10° E
